SR8WXB-1 Weather Reports


Display with metric or nautical units.
time (UTC)temp
F
wind
direction
speed
MPH
gust
MPH
rain 1hr
in
rain 24hr
in
rain mn
in
humidity
%
barometer
mb
20260906002220 55 274 12.0 17.0 0.00 0.00 0.00 100 947.2
20260906001820 55 271 9.0 15.0 0.00 0.00 0.00 100 947.2
20260906001420 55 269 7.0 13.0 0.00 0.00 0.00 100 947.2
20260906001020 56 277 6.0 10.0 0.00 0.00 0.00 100 947.2
20260906000617 56 274 9.0 13.0 0.00 0.00 0.00 100 947.2
20260906000219 56 273 10.0 17.0 0.00 0.00 0.00 100 947.1
20260905235817 56 276 7.0 12.0 0.00 0.00 0.00 100 947.1
20260905235417 56 273 12.0 19.0 0.00 0.00 0.00 100 947.1
20260905235017 56 276 6.0 10.0 0.00 0.00 0.00 100 947.2
20260905234614 57 275 9.0 14.0 0.00 0.00 0.00 100 947.1
20260905234214 57 278 10.0 16.0 0.00 0.00 0.00 100 947.0
20260905233815 57 276 11.0 20.0 0.00 0.00 0.00 100 947.0
20260905233415 57 286 9.0 21.0 0.00 0.00 0.00 100 946.9
20260905233014 57 286 11.0 24.0 0.00 0.00 0.00 100 946.9
20260905232611 57 291 10.0 20.0 0.00 0.00 0.00 100 946.8
20260905232208 57 273 8.0 16.0 0.00 0.00 0.00 100 946.8
20260905231808 57 280 8.0 12.0 0.00 0.00 0.00 100 946.7
20260905231357 57 275 8.0 14.0 0.00 0.00 0.00 100 946.7
20260905230957 57 274 8.0 11.0 0.00 0.00 0.00 100 946.6
20260905230554 57 279 7.0 13.0 0.00 0.00 0.00 100 946.6
20260905230154 57 279 8.0 15.0 0.00 0.00 0.00 100 946.6
20260905225754 57 280 8.0 13.0 0.00 0.00 0.00 100 946.7
20260905225354 57 275 10.0 15.0 0.00 0.00 0.00 100 946.7
20260905224954 57 277 9.0 14.0 0.00 0.00 0.00 100 946.7
20260905224551 57 273 10.0 15.0 0.00 0.00 0.00 100 946.6
20260905224151 57 276 10.0 13.0 0.00 0.00 0.00 100 946.5
20260905223751 57 275 9.0 13.0 0.00 0.00 0.00 100 946.6
20260905223351 57 279 10.0 15.0 0.00 0.00 0.00 100 946.5
20260905222951 57 277 9.0 13.0 0.00 0.00 0.00 100 946.5
20260905222548 57 268 7.0 10.0 0.00 0.00 0.00 100 946.5
20260905222148 57 276 10.0 14.0 0.00 0.00 0.00 100 946.5
20260905221748 58 276 8.0 10.0 0.00 0.00 0.00 100 946.5
20260905221348 58 278 9.0 12.0 0.00 0.00 0.00 100 946.5
20260905220948 58 279 8.0 11.0 0.00 0.00 0.00 100 946.4
20260905220546 57 282 9.0 12.0 0.00 0.00 0.00 100 946.4
20260905220146 57 282 9.0 11.0 0.00 0.00 0.00 100 946.4
20260905215746 57 279 7.0 9.0 0.00 0.00 0.00 100 946.4
20260905214946 57 280 7.0 10.0 0.00 0.00 0.00 100 946.4
20260905214543 57 280 8.0 10.0 0.00 0.00 0.00 100 946.4
20260905214142 57 281 8.0 10.0 0.00 0.00 0.00 100 946.4
20260905213742 57 280 8.0 10.0 0.00 0.00 0.00 100 946.4
20260905213342 58 278 7.0 9.0 0.00 0.00 0.00 100 946.4
20260905212942 58 279 8.0 10.0 0.00 0.00 0.00 100 946.4
20260905212539 58 276 7.0 9.0 0.00 0.00 0.00 100 946.3
20260905212140 58 276 7.0 8.0 0.00 0.00 0.00 100 946.4
20260905211736 58 273 7.0 9.0 0.00 0.00 0.00 100 946.4
20260905211336 58 270 7.0 9.0 0.00 0.00 0.00 100 946.4
20260905210936 58 272 7.0 10.0 0.00 0.00 0.00 100 946.4
20260905210533 58 271 7.0 9.0 0.00 0.00 0.00 100 946.4
20260905210133 58 274 8.0 11.0 0.00 0.00 0.00 100 946.4
20260905205733 58 276 9.0 11.0 0.00 0.00 0.00 100 946.4
20260905205334 58 273 7.0 10.0 0.00 0.00 0.00 100 946.3
20260905204934 58 275 7.0 8.0 0.00 0.00 0.00 100 946.3
20260905204531 59 277 8.0 9.0 0.00 0.00 0.00 100 946.3
20260905204131 59 280 7.0 10.0 0.00 0.00 0.00 100 946.4
20260905203722 59 278 8.0 10.0 0.00 0.00 0.00 100 946.3
20260905203322 59 279 8.0 11.0 0.00 0.00 0.00 100 946.3
20260905202922 59 278 7.0 9.0 0.00 0.00 0.00 100 946.3
20260905202519 59 278 6.0 9.0 0.00 0.00 0.00 100 946.2
20260905202119 59 279 7.0 9.0 0.00 0.00 0.00 100 946.3
20260905201719 59 280 7.0 9.0 0.00 0.00 0.00 100 946.3
20260905201320 59 282 7.0 9.0 0.00 0.00 0.00 100 946.3
20260905200920 59 283 8.0 10.0 0.00 0.00 0.00 100 946.4
20260905200517 59 283 7.0 8.0 0.00 0.00 0.00 100 946.3
20260905200117 59 282 7.0 8.0 0.00 0.00 0.00 100 946.3
20260905195717 59 282 7.0 9.0 0.00 0.00 0.00 100 946.2
20260905195317 59 283 5.0 8.0 0.00 0.00 0.00 100 946.1
20260905194917 59 278 4.0 5.0 0.00 0.00 0.00 100 946.0
20260905194514 59 281 5.0 7.0 0.00 0.00 0.00 100 946.1
20260905194114 59 281 5.0 7.0 0.00 0.00 0.00 100 946.0
20260905193714 60 278 6.0 8.0 0.00 0.00 0.00 100 946.0
20260905193314 60 280 7.0 9.0 0.00 0.00 0.00 100 946.0
20260905192914 60 277 7.0 8.0 0.00 0.00 0.00 100 946.0
20260905192511 60 278 6.0 7.0 0.00 0.00 0.00 100 945.9
20260905192111 60 270 4.0 5.0 0.00 0.00 0.00 100 945.9
20260905191711 60 276 4.0 5.0 0.00 0.00 0.00 100 946.0
20260905191308 60 278 6.0 7.0 0.00 0.00 0.00 100 946.0
20260905190908 60 283 6.0 7.0 0.00 0.00 0.00 100 946.0
20260905190505 60 283 6.0 7.0 0.00 0.00 0.00 100 945.9
20260905190105 60 283 6.0 7.0 0.00 0.00 0.00 100 945.8
20260905185705 60 283 6.0 8.0 0.00 0.00 0.00 100 945.9
20260905185306 61 285 5.0 7.0 0.00 0.00 0.00 100 945.9
20260905184905 61 287 4.0 8.0 0.00 0.00 0.00 100 945.9
20260905184502 61 288 6.0 10.0 0.00 0.00 0.00 100 946.0
20260905184102 61 287 6.0 10.0 0.00 0.00 0.00 100 945.9
20260905183702 61 297 6.0 12.0 0.00 0.00 0.00 100 945.9
20260905183302 61 304 6.0 9.0 0.00 0.00 0.00 100 945.9
20260905182902 61 308 7.0 12.0 0.00 0.00 0.00 100 945.9
20260905182459 61 305 5.0 8.0 0.00 0.00 0.00 100 945.9
20260905182059 61 308 6.0 11.0 0.00 0.00 0.00 100 945.8
20260905181659 61 310 5.0 9.0 0.00 0.00 0.00 100 945.8
20260905181259 61 307 8.0 12.0 0.00 0.00 0.00 100 945.8
20260905180900 61 307 6.0 9.0 0.00 0.00 0.00 100 945.8
20260905180445 61 311 6.0 13.0 0.00 0.00 0.00 100 945.8
20260905180045 61 302 8.0 13.0 0.00 0.00 0.00 100 945.7
20260905175245 61 309 8.0 14.0 0.00 0.00 0.00 100 945.6
20260905174845 61 305 8.0 10.0 0.00 0.00 0.00 100 945.6
20260905174443 61 302 7.0 10.0 0.00 0.00 0.00 100 945.5
20260905174043 61 308 9.0 13.0 0.00 0.00 0.00 100 945.5
20260905173643 61 307 9.0 12.0 0.00 0.00 0.00 100 945.4
20260905173243 61 308 8.0 13.0 0.00 0.00 0.00 100 945.3
20260905172843 61 309 8.0 14.0 0.00 0.00 0.00 100 945.4
20260905172440 62 305 10.0 14.0 0.00 0.00 0.00 100 945.3
20260905172040 62 306 8.0 14.0 0.00 0.00 0.00 100 945.2
20260905171640 62 293 8.0 15.0 0.00 0.00 0.00 100 945.2
20260905171240 62 296 8.0 17.0 0.00 0.00 0.00 100 945.2
20260905170837 63 304 6.0 8.0 0.00 0.00 0.00 100 945.2
20260905170434 63 307 6.0 10.0 0.00 0.00 0.00 100 945.2
20260905170034 63 295 6.0 10.0 0.00 0.00 0.00 100 945.2
20260905165634 64 294 5.0 10.0 0.00 0.00 0.00 100 945.1
20260905165234 64 302 3.0 5.0 0.00 0.00 0.00 100 945.1
20260905164834 64 289 5.0 9.0 0.00 0.00 0.00 100 945.1
20260905164431 65 286 5.0 9.0 0.00 0.00 0.00 100 945.1
20260905164031 65 282 7.0 9.0 0.00 0.00 0.00 100 945.0
20260905163631 65 284 7.0 11.0 0.00 0.00 0.00 100 944.9
20260905163231 66 284 5.0 8.0 0.00 0.00 0.00 100 944.9
20260905162831 66 278 7.0 10.0 0.00 0.00 0.00 100 944.9
20260905162428 65 287 6.0 10.0 0.00 0.00 0.00 100 944.9
20260905162028 65 287 6.0 9.0 0.00 0.00 0.00 100 944.8
20260905161628 65 288 6.0 10.0 0.00 0.00 0.00 100 944.9
20260905161228 65 285 6.0 10.0 0.00 0.00 0.00 100 944.8
20260905160828 65 285 7.0 8.0 0.00 0.00 0.00 100 944.8
20260905160425 66 285 7.0 10.0 0.00 0.00 0.00 100 944.7
20260905160025 66 281 5.0 9.0 0.00 0.00 0.00 100 944.7
20260905155625 67 279 5.0 9.0 0.00 0.00 0.00 100 944.7
20260905155225 68 286 8.0 11.0 0.00 0.00 0.00 100 944.6
20260905154825 69 282 8.0 15.0 0.00 0.00 0.00 100 944.6
20260905154422 69 282 10.0 15.0 0.00 0.00 0.00 100 944.6
20260905154022 69 282 8.0 13.0 0.00 0.00 0.00 100 944.6
20260905153622 69 282 8.0 12.0 0.00 0.00 0.00 100 944.6
20260905153222 70 282 11.0 16.0 0.00 0.00 0.00 100 944.6
20260905152813 70 276 8.0 14.0 0.00 0.00 0.00 100 944.6
20260905152410 71 280 11.0 15.0 0.00 0.00 0.00 100 944.6
20260905152010 71 281 11.0 21.0 0.00 0.00 0.00 100 944.7
20260905151211 71 278 10.0 18.0 0.00 0.00 0.00 100 944.7
20260905150811 72 285 14.0 18.0 0.00 0.00 0.00 100 944.7
20260905150404 72 284 9.0 13.0 0.00 0.00 0.00 100 944.7
20260905150004 72 279 6.0 12.0 0.00 0.00 0.00 100 944.8
20260905145604 72 280 9.0 17.0 0.00 0.00 0.00 100 944.7
20260905145204 73 276 5.0 10.0 0.00 0.00 0.00 100 944.7
20260905144804 73 279 8.0 14.0 0.00 0.00 0.00 100 944.8
20260905144401 71 282 7.0 10.0 0.00 0.00 0.00 100 944.8
20260905144001 70 279 8.0 10.0 0.00 0.00 0.00 100 944.7
20260905143601 69 291 8.0 14.0 0.00 0.00 0.00 100 944.7
20260905143201 69 288 5.0 14.0 0.00 0.00 0.00 100 944.8
20260905142801 69 301 5.0 10.0 0.00 0.00 0.00 100 944.8
20260905142358 71 292 5.0 8.0 0.00 0.00 0.00 100 944.8
20260905141958 71 280 4.0 10.0 0.00 0.00 0.00 100 944.8
20260905141559 69 296 4.0 9.0 0.00 0.00 0.00 100 944.8
20260905141158 68 294 3.0 6.0 0.00 0.00 0.00 100 944.7
20260905140759 69 296 5.0 9.0 0.00 0.00 0.00 100 944.7
20260905140356 70 296 5.0 12.0 0.00 0.00 0.00 100 944.7
20260905135956 71 287 5.0 8.0 0.00 0.00 0.00 100 944.7
20260905135556 72 287 6.0 14.0 0.00 0.00 0.00 100 944.7
20260905135156 73 280 10.0 16.0 0.00 0.00 0.00 100 944.7
20260905134756 73 287 6.0 10.0 0.00 0.00 0.00 100 944.6
20260905134353 73 273 7.0 15.0 0.00 0.00 0.00 100 944.6
20260905133953 72 283 3.0 9.0 0.00 0.00 0.00 100 944.6
20260905133553 71 279 8.0 14.0 0.00 0.00 0.00 100 944.7
20260905133153 71 285 8.0 16.0 0.00 0.00 0.00 100 944.7
20260905132753 70 281 8.0 14.0 0.00 0.00 0.00 100 944.7
20260905132350 70 282 13.0 21.0 0.00 0.00 0.00 100 944.7
20260905131950 69 282 12.0 19.0 0.00 0.00 0.00 100 944.6
20260905131550 68 276 13.0 17.0 0.00 0.00 0.00 100 944.6
20260905131150 66 272 9.0 15.0 0.00 0.00 0.00 100 944.7
20260905130750 67 276 10.0 15.0 0.00 0.00 0.00 100 944.7
20260905130347 68 272 13.0 18.0 0.00 0.00 0.00 100 944.6
20260905125944 68 279 15.0 22.0 0.00 0.00 0.00 100 944.7
20260905125544 68 273 14.0 23.0 0.00 0.00 0.00 100 944.7
20260905125132 68 281 13.0 19.0 0.00 0.00 0.00 100 944.7
20260905124732 70 280 8.0 13.0 0.00 0.00 0.00 100 944.7
20260905124329 70 287 6.0 11.0 0.00 0.00 0.00 100 944.7
20260905123929 71 270 12.0 19.0 0.00 0.00 0.00 100 944.7
20260905123530 71 276 12.0 21.0 0.00 0.00 0.00 100 944.7
20260905123130 69 290 5.0 10.0 0.00 0.00 0.00 100 944.7
20260905122730 68 285 6.0 12.0 0.00 0.00 0.00 100 944.8
20260905122327 67 296 5.0 13.0 0.00 0.00 0.00 100 944.8
20260905121927 67 297 4.0 8.0 0.00 0.00 0.00 100 944.9
20260905121527 67 295 2.0 5.0 0.00 0.00 0.00 100 944.9
20260905121127 68 277 4.0 6.0 0.00 0.00 0.00 100 944.9
20260905120727 69 275 8.0 15.0 0.00 0.00 0.00 100 944.9
20260905120324 69 279 7.0 11.0 0.00 0.00 0.00 100 944.9
20260905115924 69 276 10.0 15.0 0.00 0.00 0.00 100 944.8
20260905115524 68 275 11.0 18.0 0.00 0.00 0.00 100 944.9
20260905115124 67 276 9.0 14.0 0.00 0.00 0.00 100 944.9
20260905114724 65 292 4.0 9.0 0.00 0.00 0.00 100 945.0
20260905114321 64 287 4.0 8.0 0.00 0.00 0.00 100 945.1
20260905113921 64 279 5.0 9.0 0.00 0.00 0.00 100 945.2
20260905113521 62 278 8.0 11.0 0.00 0.00 0.00 100 945.2
20260905112721 63 279 13.0 19.0 0.00 0.00 0.00 100 945.2
20260905112319 64 266 11.0 14.0 0.00 0.00 0.00 100 945.2
20260905111918 64 274 10.0 14.0 0.00 0.00 0.00 100 945.2
20260905111518 64 272 14.0 20.0 0.00 0.00 0.00 100 945.2
20260905111118 63 274 13.0 20.0 0.00 0.00 0.00 100 945.2
20260905110718 62 270 11.0 18.0 0.00 0.00 0.00 100 945.2
20260905110315 61 254 12.0 15.0 0.00 0.00 0.00 100 945.1
20260905105916 60 261 12.0 18.0 0.00 0.00 0.00 100 945.1
20260905105512 58 258 11.0 14.0 0.00 0.00 0.00 100 945.1
20260905105112 57 263 11.0 14.0 0.00 0.00 0.00 100 945.0
20260905104712 57 257 10.0 13.0 0.00 0.00 0.00 100 945.1
20260905104309 56 267 9.0 12.0 0.00 0.00 0.00 100 945.3
20260905103909 56 261 9.0 13.0 0.00 0.00 0.00 100 945.3
20260905103509 56 263 8.0 12.0 0.00 0.00 0.00 100 945.2
20260905103109 56 269 8.0 11.0 0.00 0.00 0.00 100 945.2
20260905102709 56 261 6.0 9.0 0.00 0.00 0.00 100 945.1
20260905102306 56 264 9.0 12.0 0.00 0.00 0.00 100 945.1
20260905101907 56 268 8.0 9.0 0.00 0.00 0.00 100 945.2
20260905101458 57 252 10.0 14.0 0.00 0.00 0.00 100 945.0
20260905101058 57 255 6.0 8.0 0.00 0.00 0.00 100 944.8
20260905100658 57 245 9.0 12.0 0.00 0.00 0.00 100 944.7
20260905100255 57 249 6.0 9.0 0.00 0.00 0.00 100 944.7
20260905095855 57 251 7.0 9.0 0.00 0.00 0.00 100 944.9
20260905095455 57 266 8.0 13.0 0.00 0.00 0.00 100 945.0
20260905095055 57 268 9.0 13.0 0.00 0.00 0.00 100 945.1
20260905094655 58 268 10.0 14.0 0.00 0.00 0.00 100 944.9
20260905094252 58 256 7.0 11.0 0.00 0.00 0.00 100 944.9
20260905093852 58 252 11.0 15.0 0.00 0.00 0.00 100 944.9
20260905093452 58 252 10.0 14.0 0.00 0.00 0.00 100 944.9
20260905093053 58 255 10.0 14.0 0.00 0.00 0.00 100 944.7
20260905092653 57 250 8.0 12.0 0.00 0.00 0.00 100 944.7
20260905092250 57 258 8.0 13.0 0.00 0.00 0.00 100 944.7
20260905091850 57 256 10.0 12.0 0.00 0.00 0.00 100 944.8
20260905091450 57 268 9.0 12.0 0.00 0.00 0.00 100 944.8
20260905091049 57 278 9.0 14.0 0.00 0.00 0.00 100 944.6
20260905090649 58 268 11.0 17.0 0.00 0.00 0.00 100 944.7
20260905090246 58 272 12.0 18.0 0.00 0.00 0.00 100 944.9
20260905085846 58 278 8.0 12.0 0.00 0.00 0.00 100 944.7
20260905085447 57 284 8.0 16.0 0.00 0.00 0.00 100 944.6
20260905085043 57 288 5.0 11.0 0.00 0.00 0.00 100 944.5
20260905084643 57 278 7.0 14.0 0.00 0.00 0.00 100 944.7
20260905084241 57 282 6.0 9.0 0.00 0.00 0.00 100 944.9
20260905083841 57 286 10.0 18.0 0.00 0.00 0.00 100 944.8
20260905083441 56 288 9.0 16.0 0.00 0.00 0.00 100 944.6
20260905083041 57 283 9.0 13.0 0.00 0.00 0.00 100 944.6
20260905082641 57 289 8.0 16.0 0.00 0.00 0.00 100 944.5
20260905082238 58 292 9.0 15.0 0.00 0.00 0.00 100 944.6
20260905081838 58 286 12.0 22.0 0.00 0.00 0.00 100 944.4
20260905081438 59 287 6.0 12.0 0.00 0.00 0.00 100 944.3
20260905081038 59 285 8.0 13.0 0.00 0.00 0.00 100 944.4
20260905080638 59 285 8.0 13.0 0.00 0.00 0.00 100 944.3
20260905080235 59 281 8.0 20.0 0.00 0.00 0.00 100 944.3
20260905075835 59 278 6.0 12.0 0.00 0.00 0.00 100 944.1
20260905075435 59 287 5.0 11.0 0.00 0.00 0.00 100 944.0
20260905075035 59 293 4.0 7.0 0.00 0.00 0.00 100 943.7
20260905074635 59 285 10.0 17.0 0.00 0.00 0.00 100 943.6
20260905074221 59 281 12.0 20.0 0.00 0.00 0.00 100 943.9
20260905073821 60 278 9.0 20.0 0.00 0.00 0.00 100 943.8
20260905073021 60 279 9.0 13.0 0.00 0.00 0.00 100 943.7
20260905072621 60 288 13.0 22.0 0.00 0.00 0.00 100 943.7
20260905072218 60 283 9.0 16.0 0.00 0.00 0.00 100 943.6
20260905071818 60 283 8.0 18.0 0.00 0.00 0.00 100 943.6
20260905071418 60 280 8.0 16.0 0.00 0.00 0.00 100 943.7
20260905071018 60 288 9.0 16.0 0.00 0.00 0.00 100 943.7
20260905070619 60 286 8.0 15.0 0.00 0.00 0.00 100 943.8
20260905070216 60 279 9.0 16.0 0.00 0.00 0.00 100 943.7
20260905065815 60 287 9.0 13.0 0.00 0.00 0.00 100 943.7
20260905065415 60 279 10.0 18.0 0.00 0.00 0.00 100 943.7
20260905065015 60 269 12.0 18.0 0.00 0.00 0.00 100 943.6
20260905064612 60 276 12.0 19.0 0.00 0.00 0.00 100 943.5
20260905064209 60 278 9.0 17.0 0.00 0.00 0.00 100 943.3
20260905063809 60 287 5.0 10.0 0.00 0.00 0.00 100 943.3
20260905063410 60 285 8.0 18.0 0.00 0.00 0.00 100 943.2
20260905063009 60 287 6.0 9.0 0.00 0.00 0.00 100 943.2
20260905062609 59 285 8.0 19.0 0.00 0.00 0.00 100 943.3
20260905062206 59 283 3.0 6.0 0.00 0.00 0.00 100 943.2
20260905061806 59 280 5.0 8.0 0.00 0.00 0.00 100 943.1
20260905061406 59 260 5.0 8.0 0.00 0.00 0.00 100 943.1
20260905061007 59 270 5.0 6.0 0.00 0.00 0.00 100 943.2
20260905060607 59 243 7.0 9.0 0.00 0.00 0.00 100 943.1
20260905060204 59 240 8.0 10.0 0.00 0.00 0.00 100 942.9
20260905055804 59 244 7.0 8.0 0.00 0.00 0.00 100 942.8
20260905055404 59 241 6.0 8.0 0.00 0.00 0.00 100 942.7
20260905055004 59 239 7.0 9.0 0.00 0.00 0.00 100 942.7
20260905054604 59 238 7.0 10.0 0.00 0.00 0.00 100 942.7
20260905054201 59 233 9.0 10.0 0.00 0.00 0.00 100 942.5
20260905053801 59 238 7.0 8.0 0.00 0.00 0.00 100 942.4
20260905053401 59 233 10.0 11.0 0.00 0.00 0.00 100 942.4
20260905053001 59 232 10.0 12.0 0.00 0.00 0.00 100 942.2
20260905052600 59 236 10.0 12.0 0.00 0.00 0.00 100 942.0
20260905052157 59 233 8.0 11.0 0.00 0.00 0.00 100 942.1
20260905051757 59 238 8.0 9.0 0.00 0.00 0.00 100 942.3
20260905051358 59 241 6.0 7.0 0.00 0.00 0.00 100 942.3
20260905050958 59 251 5.0 6.0 0.00 0.00 0.00 100 942.2
20260905050549 59 244 7.0 8.0 0.00 0.00 0.00 100 942.2
20260905050146 59 241 8.0 10.0 0.00 0.00 0.00 100 942.2
20260905045746 59 243 8.0 9.0 0.00 0.00 0.00 100 942.2
20260905044946 59 245 8.0 10.0 0.00 0.00 0.00 100 942.1
20260905044546 59 243 8.0 10.0 0.00 0.00 0.00 100 942.2
20260905044140 60 242 9.0 11.0 0.00 0.00 0.00 100 942.2
20260905043740 60 247 10.0 14.0 0.00 0.00 0.00 100 942.1
20260905043340 60 267 9.0 15.0 0.00 0.00 0.00 100 942.1
20260905042940 60 279 6.0 12.0 0.00 0.00 0.00 100 942.3
20260905042540 60 280 8.0 13.0 0.00 0.00 0.00 100 942.3
20260905042137 60 275 10.0 13.0 0.00 0.00 0.00 100 942.4
20260905041737 60 273 9.0 11.0 0.00 0.00 0.00 100 942.4
20260905041337 61 278 8.0 11.0 0.00 0.00 0.00 100 942.4
20260905040937 61 273 10.0 16.0 0.00 0.00 0.00 100 942.6
20260905040537 61 278 9.0 13.0 0.00 0.00 0.00 100 942.8
20260905040134 62 282 6.0 10.0 0.00 0.00 0.00 100 942.6
20260905035734 62 306 4.0 9.0 0.00 0.00 0.00 100 942.7
20260905035334 62 288 4.0 9.0 0.00 0.00 0.00 100 942.9
20260905034934 62 292 10.0 19.0 0.00 0.00 0.00 100 942.9
20260905034534 62 294 6.0 12.0 0.00 0.00 0.00 100 942.9
20260905034131 62 290 6.0 10.0 0.00 0.00 0.00 100 942.8
20260905033731 62 285 9.0 16.0 0.00 0.00 0.00 100 942.7
20260905033331 62 288 8.0 14.0 0.00 0.00 0.00 100 942.6
20260905032931 63 288 8.0 15.0 0.00 0.00 0.00 100 942.5
20260905032532 63 284 9.0 15.0 0.00 0.00 0.00 100 942.5
20260905032129 63 292 6.0 10.0 0.00 0.00 0.00 100 942.3
20260905031729 63 294 7.0 13.0 0.00 0.00 0.00 100 942.4
20260905031329 63 285 10.0 15.0 0.00 0.00 0.00 100 942.5
20260905030929 64 284 12.0 24.0 0.00 0.00 0.00 100 942.5
20260905030529 64 288 11.0 20.0 0.00 0.00 0.00 100 942.5
20260905030126 64 282 9.0 17.0 0.00 0.00 0.00 100 942.4
20260905025726 64 292 7.0 12.0 0.00 0.00 0.00 100 942.1
20260905025326 64 293 7.0 12.0 0.00 0.00 0.00 100 942.0
20260905024926 64 304 5.0 13.0 0.00 0.00 0.00 100 941.8
20260905024525 64 306 6.0 10.0 0.00 0.00 0.00 100 941.7
20260905024122 64 310 5.0 8.0 0.00 0.00 0.00 100 941.6
20260905023719 65 300 6.0 14.0 0.00 0.00 0.00 100 941.5
20260905023319 65 300 8.0 15.0 0.00 0.00 0.00 100 941.5
20260905022908 65 298 8.0 12.0 0.00 0.00 0.00 100 941.5
20260905022508 65 293 10.0 14.0 0.00 0.00 0.00 100 941.4
20260905022105 65 291 7.0 14.0 0.00 0.00 0.00 100 941.2
20260905021705 66 302 6.0 13.0 0.00 0.00 0.00 100 941.1
20260905021305 66 296 6.0 11.0 0.00 0.00 0.00 100 941.0
20260905020905 66 286 10.0 14.0 0.00 0.00 0.00 100 940.9
20260905020505 66 287 11.0 17.0 0.00 0.00 0.00 100 940.8
20260905015703 67 275 18.0 25.0 0.00 0.00 0.00 100 940.4
20260905015306 67 276 17.0 23.0 0.00 0.00 0.00 100 940.2
20260905014903 67 263 13.0 20.0 0.00 0.00 0.00 100 940.1
20260905014503 67 279 10.0 12.0 0.00 0.00 0.00 100 940.2
20260905014100 67 267 12.0 18.0 0.00 0.00 0.00 100 940.0
20260905013700 67 244 18.0 21.0 0.00 0.00 0.00 100 939.7
20260905013300 66 247 16.0 21.0 0.00 0.00 0.00 100 939.6
20260905012900 66 244 17.0 23.0 0.00 0.00 0.00 100 939.5
20260905012500 66 238 13.0 17.0 0.00 0.00 0.00 100 939.6
20260905012057 66 238 13.0 18.0 0.00 0.00 0.00 100 939.5
20260905011657 66 238 12.0 17.0 0.00 0.00 0.00 100 939.5
20260905011257 66 237 14.0 19.0 0.00 0.00 0.00 100 939.6
20260905010457 66 237 15.0 17.0 0.00 0.00 0.00 100 939.6
20260905010054 66 236 14.0 20.0 0.00 0.00 0.00 100 939.6
20260905005654 66 237 16.0 21.0 0.00 0.00 0.00 100 939.6
20260905005254 66 238 17.0 21.0 0.00 0.00 0.00 100 939.5
20260905004854 67 239 17.0 19.0 0.00 0.00 0.00 100 939.6
20260905004454 67 238 16.0 20.0 0.00 0.00 0.00 100 939.6
20260905004051 67 240 17.0 24.0 0.00 0.00 0.00 100 939.6
20260905003652 67 237 20.0 25.0 0.00 0.00 0.00 100 939.5
20260905003248 67 239 19.0 24.0 0.00 0.00 0.00 100 939.5
20260905002848 67 238 20.0 24.0 0.00 0.00 0.00 100 939.6